Other Public Products
Issued by NWS Charleston, SC

Current Version | Previous Version | Graphics & Text | Print | Product List | Glossary On
Versions: 1 2 3 4 5 6 7 8 9 10 11 12 13 14 15 16 17 18 19 20 21 22 23 24 25 26 27 28 29 30 31 32 33 34 35 36 37 38 39 40 41 42 43 44 45 46 47 48 49 50
000 FPUS82 KCHS 261512 OPUCHS TEST...KCHS/KSAV Gateway Observations...TEST National Weather Service Charleston SC 1100 AM EDT SAT MAY 26 2018 NOTE: "fair" indicates few or no clouds below 12,000 feet with no significant weather and/or obstructions to visibility. SCZ050-WAZ558-NCZ071-TXZ119-213-PAZ071-DCZ001-FLZ074-172-MI076- NYZ176-178-MAZ016-IL014-TNZ027-NJZ106-GAZ044-MD014-261600- ...Gateway Observations for Charleston International... CITY SKY/WX TMP DP RH WIND PRES REMARKS Chas Airport PTSUNNY 84 72 67 S8 30.00F Seattle PTSUNNY 55 45 68 SE6 30.15R Charlotte PTSUNNY 75 72 88 SW9 30.00S Dallas DFW MOSUNNY 82 68 62 S3 29.85R Dallas Love MOSUNNY 80 68 66 CALM 29.85S Philladelphia PTSUNNY 79 67 66 SW9 29.86F Wash National FAIR 82 69 64 S10 29.88F Baltimore FAIR 85 70 60 W8 29.86F Miami LGT RAIN 77 75 93 E14 29.94S FOG Detroit CLOUDY 71 60 68 CALM 29.82F Newark PTSUNNY 86 65 49 W5 29.82F Laguardia PTSUNNY 84 64 50 NW6 29.82S J F K PTSUNNY 79 69 71 S10 29.84S Boston Logan NOT AVBL Ft. Lauderdale LGT RAIN 78 76 93 SE17 29.94S Chicago O`Hare PTSUNNY 79 63 57 SW6 29.79R Chicago Midway PTSUNNY 77 65 66 W3 29.79S Houston Bush PTSUNNY 84 74 71 SW8 29.87S HX 91 Houston Hobby PTSUNNY 83 76 79 SW12 29.87F HX 91 Nashville PTSUNNY 78 68 71 VRB6 29.95S Atlanta PTSUNNY 75 68 78 W5 30.00F $$ GAZ044-118-TXZ119-213-NCZ071-DCZ001-MDZ014-506-PAZ021-071-NJZ106- NYZ176-178-MAZ106-OHZ011-021-055-MIZ076-KYZ091-ILZ014-INZ047- MNZ060-ONZ431-261600- ...Gateway Observations for Savannah International... CITY SKY/WX TMP DP RH WIND PRES REMARKS Savannah Arpt PTSUNNY 81 70 69 S5 30.01F Atlanta PTSUNNY 75 68 78 W5 30.00F Charlotte PTSUNNY 75 72 88 SW9 30.00S Dallas DFW MOSUNNY 82 68 62 S3 29.85R Houston Bush PTSUNNY 84 74 71 SW8 29.87S HX 91 Wash National FAIR 82 69 64 S10 29.88F Wash Dulles PTSUNNY 84 70 62 VRB5 29.88F Baltimore FAIR 85 70 60 W8 29.86F Philadelphia PTSUNNY 79 67 66 SW9 29.86F Newark PTSUNNY 86 65 49 W5 29.82F Laguardia PTSUNNY 84 64 50 NW6 29.82S J F K PTSUNNY 79 69 71 S10 29.84S Boston NOT AVBL Pittsburg PTSUNNY 80 60 50 SW9 29.89S Akron CLOUDY 78 62 57 SW6 29.89S Cleveland CLOUDY 75 63 66 SW7 29.87S Cincinnati PTSUNNY 76 67 73 SW6 29.90S Columbus FAIR 79 66 66 MISG 29.88S Detroit CLOUDY 71 60 68 CALM 29.82F Chicago O`Hare PTSUNNY 79 63 57 SW6 29.79R Minneapolis FAIR 79 63 57 SW6 29.72S Indianapolis PTSUNNY 76 68 76 SW9 29.85F Toronto Canada PTSUNNY 77 59 53 S5 29.80S $$

USA.gov is the U.S. government's official web portal to all federal, state and local government web resources and services.